Flag for Germany Weather past 2 weeks in Freising, Bavaria, Germany

Now
42 °F

Passing clouds.


Feels Like: 42 °F
Forecast: 43 / 67 °F
Wind: 1 mph from Northeast

Location: Muenchen Flughafen


UV Index: 3 (Moderate)

Visibility: 10 mi


Pressure: 29.67 "Hg

Humidity: 96%

Dew point: 41 °F

Location of FreisingLocation

Historic Weather in Freising

°F

Freising temperature yesterday

Maximum temperature yesterday: 60 °F (at 3:00 PM)
Minimum temperature yesterday: 43 °F (at 3:00 AM)
Average temperature yesterday: 52 °F

Past Weeks' High & Low Weather Summary

 TemperatureHumidityPressure
High68 °F (Apr 7, 4:00 PM)100% (Apr 6, 11:00 PM)30.44 "Hg (Apr 6, 11:00 PM)
Low26 °F (Apr 17, 6:00 AM)37% (Apr 13, 7:00 PM)29.67 "Hg (Apr 20, 7:00 PM)
Average48 °F76%30.08 "Hg
* Reported Apr 6 3:00 AM — Apr 21 3:00 AM, Freising, Weather by CustomWeather, © 2014

Note: Actual official high and low records may vary slightly from our data, if they occured in-between our weather recording intervals... More about our weather records

Advertising

Historic Weather Conditions — Data for Previous 24 hours

 ConditionsComfort  
Time TempWeatherWind HumidityBarometerVisibility
3:00 AM
Apr 21
42 °FPassing clouds.3 mph97%29.68 "Hg10 mi
2:00 AM39 °FPassing clouds.2 mph96%29.72 "Hg12 mi
1:00 AM42 °FPassing clouds.2 mph91%29.72 "Hg25 mi
12:00 AM45 °FPassing clouds.2 mph85%29.72 "Hg25 mi
11:00 PM
Apr 20
46 °FPassing clouds.2 mph79%29.72 "Hg25 mi
10:00 PM48 °FPassing clouds.2 mph77%29.72 "Hg25 mi
9:00 PM52 °FPassing clouds.3 mph70%29.70 "Hg31 mi
8:00 PM55 °FPassing clouds.5 mph61%29.69 "Hg37 mi
7:00 PM58 °FScattered clouds.7 mph57%29.67 "Hg37 mi
6:00 PM58 °FScattered clouds.8 mph57%29.67 "Hg31 mi
5:00 PM58 °FPartly sunny.9 mph56%29.69 "Hg31 mi
4:00 PM60 °FPartly sunny.8 mph56%29.69 "Hg31 mi
3:00 PM60 °FPartly sunny.8 mph63%29.69 "Hg31 mi
2:00 PM58 °FOvercast.7 mph61%29.71 "Hg31 mi
1:00 PM55 °FPartly sunny.8 mph65%29.72 "Hg25 mi
12:00 PM55 °FOvercast.6 mph69%29.73 "Hg25 mi
11:00 AM53 °FOvercast.8 mph77%29.75 "Hg25 mi
10:00 AM52 °FPartly sunny.8 mph77%29.74 "Hg25 mi
9:00 AM50 °FPassing clouds.7 mph79%29.74 "Hg25 mi
8:00 AM49 °FPassing clouds.6 mph83%29.74 "Hg25 mi
7:00 AM48 °FPassing clouds.6 mph85%29.74 "Hg19 mi
6:00 AM49 °FPassing clouds.3 mph95%29.72 "Hg12 mi
5:00 AM46 °FFog.2 mph100%29.74 "Hg5 mi
4:00 AM45 °FFog.2 mph100%29.75 "Hg3 mi
Weather by CustomWeather, © 2014

See weather overview